GW6228 Weather Reports


Display with metric or nautical units.
time (UTC)temp
F
wind
direction
speed
MPH
gust
MPH
rain 1hr
in
rain 24hr
in
rain mn
in
humidity
%
barometer
mb
20260510033604 58 158 8.0 10.0 0.00 0.00 0.01 77 1011.9
20260510033044 56 170 7.0 8.0 0.00 0.00 0.01 78 1011.7
20260510032525 57 150 7.0 10.0 0.00 0.00 0.01 77 1011.8
20260510032004 60 146 4.0 8.0 0.00 0.00 0.01 74 1011.7
20260510031446 58 165 4.0 5.0 0.00 0.00 0.01 77 1011.9
20260510030925 57 159 7.0 8.0 0.00 0.00 0.01 76 1011.8
20260510030405 58 160 7.0 13.0 0.00 0.00 0.01 75 1012.0
20260510025845 56 147 6.0 8.0 0.00 0.00 0.01 77 1011.9
20260510025324 57 167 6.0 8.0 0.00 0.00 0.01 79 1012.1
20260510024804 55 152 8.0 10.0 0.00 0.00 0.01 80 1012.1
20260510024245 55 140 6.0 8.0 0.00 0.00 0.01 79 1012.1
20260510023725 56 141 4.0 5.0 0.00 0.00 0.01 80 1012.1
20260510023204 56 157 8.0 10.0 0.00 0.00 0.01 79 1012.4
20260510022644 56 157 6.0 8.0 0.00 0.00 0.01 79 1012.3
20260510022124 57 170 7.0 10.0 0.00 0.00 0.01 79 1012.3
20260510021604 56 161 6.0 8.0 0.00 0.00 0.01 79 1012.6
20260510021045 56 159 5.0 8.0 0.00 0.00 0.01 80 1012.7
20260510020524 56 176 7.0 10.0 0.00 0.00 0.01 80 1012.5
20260510020005 55 159 6.0 8.0 0.00 0.00 0.01 80 1012.6
20260510015445 55 143 4.0 8.0 0.00 0.00 0.01 80 1012.5
20260510014924 56 163 6.0 8.0 0.00 0.00 0.01 79 1012.8
20260510014404 55 181 6.0 8.0 0.00 0.00 0.01 80 1012.8
20260510013844 55 171 8.0 10.0 0.00 0.00 0.01 81 1012.9
20260510013324 54 144 6.0 10.0 0.00 0.00 0.01 81 1013.0
20260510012804 56 154 5.0 5.0 0.00 0.00 0.01 80 1013.0
20260510012245 54 166 8.0 13.0 0.00 0.00 0.01 82 1013.1
20260510011726 55 155 9.0 13.0 0.00 0.00 0.01 83 1013.0
20260510011204 55 155 8.0 10.0 0.00 0.00 0.01 84 1013.3
20260510010644 54 165 7.0 13.0 0.00 0.00 0.01 84 1013.1
20260510010126 54 141 5.0 8.0 0.00 0.00 0.01 85 1013.2
20260510005604 53 165 6.0 8.0 0.00 0.00 0.01 86 1013.0
20260510005045 53 158 9.0 13.0 0.00 0.00 0.01 88 1013.3
20260510004524 53 172 9.0 10.0 0.00 0.00 0.01 89 1013.0
20260510004004 53 178 8.0 10.0 0.00 0.00 0.01 92 1013.3
20260510003445 52 178 10.0 10.0 0.00 0.00 0.01 94 1013.1
20260510002925 52 168 8.0 10.0 0.00 0.00 0.01 96 1013.0
20260510002405 52 158 5.0 8.0 0.00 0.00 0.01 98 1013.2
20260510001845 52 178 5.0 8.0 0.00 0.00 0.01 99 1013.3
20260510001325 52 158 5.0 8.0 0.00 0.00 0.01 99 1013.2
20260510000805 52 154 6.0 10.0 0.00 0.00 0.01 99 1013.1
20260510000245 51 174 5.0 8.0 0.00 0.00 0.01 99 1013.1
20260509235725 51 175 8.0 10.0 0.00 0.00 0.01 99 1013.1
20260509235205 51 147 5.0 8.0 0.00 0.00 0.01 99 1013.2
20260509234646 51 180 5.0 8.0 0.00 0.00 0.01 99 1013.2
20260509234125 51 164 6.0 8.0 0.00 0.00 0.01 99 1013.3
20260509233606 51 170 5.0 8.0 0.00 0.00 0.01 99 1013.0
20260509233045 51 177 6.0 8.0 0.00 0.00 0.01 99 1012.8
20260509232525 51 171 6.0 8.0 0.00 0.00 0.01 99 1013.0
20260509232005 51 151 6.0 10.0 0.00 0.00 0.01 99 1013.1
20260509231445 51 155 7.0 8.0 0.00 0.00 0.01 99 1013.1
20260509230925 51 187 5.0 8.0 0.00 0.00 0.01 99 1012.7
20260509230405 51 176 5.0 8.0 0.00 0.00 0.01 99 1012.9
20260509225845 51 131 6.0 10.0 0.00 0.00 0.01 99 1013.1
20260509225325 50 155 8.0 10.0 0.00 0.00 0.01 99 1012.9
20260509224804 51 155 7.0 10.0 0.00 0.00 0.01 99 1012.7
20260509224245 51 173 6.0 10.0 0.00 0.00 0.01 99 1012.7
20260509223725 50 158 7.0 10.0 0.00 0.00 0.01 99 1012.7
20260509223205 51 163 7.0 8.0 0.00 0.00 0.01 99 1012.7
20260509222645 51 188 5.0 8.0 0.00 0.00 0.01 99 1012.7
20260509222130 50 160 7.0 10.0 0.00 0.00 0.01 99 1012.6
20260509221620 50 157 7.0 10.0 0.00 0.00 0.01 99 1012.8
20260509221100 50 151 5.0 8.0 0.00 0.00 0.01 99 1012.5
20260509220540 51 162 7.0 8.0 0.00 0.00 0.01 99 1012.6
20260509220025 51 161 9.0 10.0 0.00 0.00 0.01 99 1012.3
20260509215515 51 150 8.0 10.0 0.00 0.00 0.01 99 1012.5
20260509214956 51 147 2.0 5.0 0.00 0.00 0.01 99 1012.2
20260509172245 52 177 5.0 5.0 0.00 0.00 0.00 99 1010.3
20260509171725 52 152 5.0 5.0 0.00 0.00 0.00 99 1010.3
20260509171205 52 167 5.0 8.0 0.00 0.00 0.00 99 1010.1
20260509170646 52 163 7.0 8.0 0.00 0.00 0.00 99 1010.3
20260509170124 52 164 7.0 8.0 0.00 0.00 0.00 99 1010.4
20260509165604 52 148 5.0 8.0 0.00 0.00 0.00 99 1010.2
20260509165045 52 164 5.0 8.0 0.00 0.00 0.00 99 1010.2
20260509164525 52 171 7.0 10.0 0.00 0.00 0.00 99 1010.2
20260509164004 52 157 7.0 8.0 0.00 0.00 0.00 99 1010.2
20260509163445 52 162 6.0 8.0 0.00 0.00 0.00 99 1010.2
20260509162924 52 162 6.0 10.0 0.00 0.00 0.00 99 1010.3
20260509162404 52 160 5.0 5.0 0.00 0.00 0.00 99 1010.4
20260509161845 52 184 5.0 5.0 0.00 0.00 0.00 99 1010.4
20260509161324 52 167 5.0 8.0 0.00 0.00 0.00 99 1010.2
20260509160803 52 179 6.0 8.0 0.00 0.00 0.00 99 1010.6
20260509160245 52 159 6.0 8.0 0.00 0.00 0.00 99 1010.3
20260509155723 52 159 5.0 8.0 0.00 0.00 0.00 99 1010.3
20260509155203 52 164 5.0 8.0 0.00 0.00 0.00 99 1010.6
20260509154645 52 189 4.0 8.0 0.00 0.00 0.00 99 1010.4
20260509154123 52 153 5.0 8.0 0.00 0.00 0.00 99 1010.4
20260509153603 52 161 6.0 8.0 0.00 0.00 0.00 99 1010.2
20260509153045 52 144 6.0 8.0 0.00 0.00 0.00 99 1010.3
20260509152523 52 164 6.0 8.0 0.00 0.00 0.00 99 1010.4
20260509152003 52 165 5.0 5.0 0.00 0.00 0.00 99 1010.4
20260509151444 52 156 4.0 5.0 0.00 0.00 0.00 99 1010.3
20260509150924 52 176 5.0 5.0 0.00 0.00 0.00 99 1010.4
20260509150404 52 160 7.0 10.0 0.00 0.00 0.00 99 1010.4
20260509145845 52 159 7.0 8.0 0.00 0.00 0.00 99 1010.4
20260509145324 52 161 8.0 10.0 0.00 0.00 0.00 99 1010.5
20260509144805 52 153 8.0 10.0 0.00 0.00 0.00 99 1010.4
20260509144244 52 161 6.0 8.0 0.00 0.00 0.00 99 1010.2
20260509143724 52 154 7.0 8.0 0.00 0.00 0.00 99 1010.4
20260509143206 52 169 6.0 8.0 0.00 0.00 0.00 99 1010.6
20260509142646 52 169 6.0 8.0 0.00 0.00 0.00 99 1010.5
20260509142124 52 168 6.0 8.0 0.00 0.00 0.00 99 1010.5
20260509141605 52 171 6.0 8.0 0.00 0.00 0.00 99 1010.4
20260509141046 52 155 8.0 10.0 0.00 0.00 0.00 99 1010.4
20260509140524 52 164 7.0 8.0 0.00 0.00 0.00 99 1010.5
20260509135845 52 174 6.0 8.0 0.00 0.00 0.02 98 1010.4
20260509135323 52 168 3.0 5.0 0.00 0.00 0.02 98 1010.5
20260509134803 52 174 3.0 5.0 0.00 0.00 0.02 98 1010.6
20260509134245 52 184 5.0 8.0 0.00 0.00 0.02 98 1010.5
20260509133723 52 161 4.0 5.0 0.00 0.00 0.02 98 1010.5
20260509133203 52 137 6.0 10.0 0.00 0.00 0.02 98 1010.5
20260509132645 52 143 5.0 8.0 0.00 0.00 0.02 98 1010.4
20260509132129 52 183 6.0 8.0 0.00 0.00 0.02 98 1010.7
20260509131619 52 163 4.0 5.0 0.00 0.00 0.02 98 1010.6
20260509131059 52 164 7.0 10.0 0.00 0.00 0.02 98 1010.3
20260509130539 52 158 7.0 10.0 0.00 0.00 0.02 98 1010.5
20260509130024 52 159 6.0 8.0 0.00 0.00 0.02 98 1010.5
20260509125517 52 162 8.0 10.0 0.00 0.00 0.02 98 1010.6
20260509124956 52 158 7.0 10.0 0.00 0.00 0.02 98 1010.7
20260509124435 52 169 8.0 13.0 0.00 0.00 0.02 98 1010.7
20260509123924 52 158 5.0 8.0 0.00 0.00 0.02 98 1010.5
20260509123412 52 162 6.0 8.0 0.00 0.00 0.02 98 1010.6
20260509122834 52 178 8.0 10.0 0.00 0.00 0.02 98 1010.5
20260509122306 52 176 6.0 8.0 0.00 0.00 0.02 98 1010.7
20260509121741 52 167 7.0 8.0 0.00 0.00 0.02 98 1010.6
20260509121212 52 174 7.0 10.0 0.00 0.00 0.02 98 1010.5
20260509120649 52 154 8.0 10.0 0.00 0.00 0.02 98 1010.8
20260509120126 52 180 9.0 10.0 0.00 0.00 0.02 98 1010.4
20260509115602 52 166 7.0 10.0 0.00 0.00 0.02 98 1010.5
20260509115044 52 175 8.0 10.0 0.00 0.00 0.02 98 1010.7
20260509114524 52 154 5.0 8.0 0.00 0.00 0.02 98 1010.6
20260509114004 52 177 6.0 8.0 0.00 0.00 0.02 98 1010.6
20260509113444 52 154 5.0 8.0 0.00 0.00 0.02 98 1010.4
20260509112923 52 165 3.0 5.0 0.00 0.00 0.02 98 1010.5
20260509112403 51 180 5.0 5.0 0.00 0.00 0.02 97 1010.6
20260509111845 51 166 4.0 5.0 0.00 0.00 0.02 97 1010.4
20260509111324 51 169 5.0 8.0 0.00 0.00 0.02 97 1010.4
20260509110803 51 180 3.0 5.0 0.00 0.00 0.02 97 1010.5
20260509110246 51 174 3.0 5.0 0.00 0.00 0.02 97 1010.2
20260509105723 52 174 3.0 5.0 0.00 0.00 0.02 97 1010.3
20260509105204 52 160 5.0 8.0 0.00 0.00 0.02 97 1010.4
20260509104645 52 168 5.0 8.0 0.00 0.00 0.02 97 1010.4
20260509104124 52 168 5.0 5.0 0.00 0.00 0.02 97 1010.2
20260509103603 52 176 5.0 8.0 0.00 0.00 0.02 97 1010.4
20260509103044 52 164 5.0 8.0 0.00 0.00 0.02 96 1010.5
20260509102522 52 165 5.0 8.0 0.00 0.00 0.02 96 1010.2
20260509102003 52 154 4.0 5.0 0.00 0.00 0.02 96 1010.2
20260509101442 52 166 5.0 5.0 0.00 0.00 0.02 96 1010.1
20260509100923 52 146 3.0 5.0 0.00 0.00 0.02 96 1010.2
20260509100403 52 169 4.0 5.0 0.00 0.00 0.02 96 1010.2
20260509095844 52 157 2.0 3.0 0.00 0.00 0.02 96 1010.0
20260509095323 52 158 3.0 5.0 0.00 0.00 0.02 96 1010.2
20260509094815 52 164 3.0 5.0 0.00 0.00 0.02 96 1010.1
20260509094242 52 155 5.0 5.0 0.00 0.00 0.02 96 1010.1
20260509093723 52 155 3.0 5.0 0.00 0.00 0.02 95 1010.1
20260509093203 52 157 5.0 8.0 0.00 0.00 0.02 95 1010.2
20260509092642 52 153 7.0 8.0 0.00 0.00 0.02 95 1009.9
20260509092122 52 156 7.0 10.0 0.00 0.00 0.02 95 1010.0
20260509091602 53 164 6.0 8.0 0.00 0.00 0.02 95 1009.8
20260509091042 53 153 6.0 8.0 0.00 0.00 0.02 95 1009.9
20260509090522 53 181 7.0 10.0 0.00 0.00 0.02 95 1009.8
20260509090003 53 163 7.0 10.0 0.00 0.00 0.02 95 1009.7
20260509085442 53 173 8.0 10.0 0.00 0.00 0.02 94 1009.7
20260509084922 53 152 7.0 10.0 0.00 0.00 0.02 94 1009.6
20260509084402 53 159 7.0 8.0 0.00 0.00 0.02 94 1009.8
20260509083843 53 163 9.0 10.0 0.00 0.00 0.02 94 1009.6
20260509083322 53 157 10.0 13.0 0.00 0.00 0.02 94 1009.4
20260509082802 53 169 7.0 10.0 0.00 0.00 0.02 94 1009.4
20260509082242 53 160 5.0 8.0 0.00 0.00 0.02 94 1009.3
20260509081723 53 164 5.0 8.0 0.00 0.00 0.02 94 1009.3
20260509081202 53 155 6.0 8.0 0.00 0.00 0.02 94 1009.4
20260509080642 53 150 5.0 8.0 0.00 0.00 0.02 94 1009.2
20260509080123 53 165 5.0 8.0 0.00 0.00 0.02 94 1009.4
20260509075603 53 182 6.0 8.0 0.00 0.00 0.02 94 1009.3
20260509075042 53 165 6.0 8.0 0.00 0.00 0.02 94 1009.4
20260509074522 53 183 6.0 8.0 0.00 0.00 0.02 94 1009.2
20260509074004 53 177 8.0 10.0 0.00 0.00 0.02 93 1009.2
20260509073444 53 170 6.0 8.0 0.00 0.00 0.02 94 1009.1
20260509072923 54 162 9.0 13.0 0.00 0.00 0.02 93 1008.9
20260509072402 54 166 9.0 10.0 0.00 0.00 0.02 93 1008.7
20260509071842 54 171 10.0 13.0 0.00 0.00 0.02 93 1008.9
20260509071322 54 176 9.0 13.0 0.00 0.00 0.02 93 1008.8
20260509070803 54 166 8.0 10.0 0.00 0.00 0.02 93 1008.7
20260509070242 54 173 6.0 8.0 0.00 0.00 0.02 92 1008.7
20260509065723 54 172 8.0 10.0 0.00 0.00 0.02 92 1008.8
20260509065203 54 164 9.0 10.0 0.00 0.00 0.02 92 1008.5
20260509064644 54 172 9.0 10.0 0.00 0.00 0.02 92 1008.7
20260509064124 54 179 7.0 10.0 0.00 0.00 0.02 92 1008.8
20260509063603 55 169 7.0 8.0 0.00 0.00 0.02 92 1008.6
20260509063044 55 171 8.0 13.0 0.00 0.00 0.02 92 1008.7
20260509062522 54 175 6.0 8.0 0.00 0.00 0.02 92 1008.8
20260509062003 55 186 6.0 8.0 0.00 0.00 0.02 92 1008.8
20260509061446 55 182 6.0 8.0 0.00 0.00 0.02 92 1008.5
20260509060924 55 175 6.0 8.0 0.00 0.00 0.02 92 1008.9
20260509060404 55 178 7.0 10.0 0.00 0.00 0.02 91 1008.7
20260509055844 55 172 11.0 13.0 0.00 0.00 0.02 91 1008.6
20260509055328 55 177 7.0 8.0 0.00 0.00 0.02 91 1008.6
20260509054818 54 171 9.0 13.0 0.00 0.00 0.02 93 1008.2
20260509054258 54 178 8.0 10.0 0.00 0.00 0.02 95 1008.6
20260509053738 54 169 7.0 13.0 0.00 0.00 0.02 96 1008.6
20260509053224 54 169 7.0 13.0 0.00 0.00 0.02 97 1008.6
20260509052714 54 156 7.0 8.0 0.00 0.00 0.02 98 1008.4
20260509052154 54 171 7.0 10.0 0.00 0.00 0.02 98 1008.5
20260509051634 54 185 6.0 10.0 0.00 0.00 0.02 99 1008.5
20260509051124 54 182 7.0 10.0 0.00 0.00 0.02 99 1008.4
20260509050611 54 178 6.0 8.0 0.00 0.00 0.02 99 1008.6
20260509050050 54 179 7.0 10.0 0.00 0.00 0.02 99 1008.6
20260509045530 54 169 6.0 8.0 0.00 0.00 0.02 99 1008.6
20260509045023 53 176 8.0 10.0 0.00 0.00 0.02 99 1008.5
20260509044506 54 173 8.0 10.0 0.00 0.00 0.02 99 1008.7
20260509043947 54 173 6.0 8.0 0.00 0.00 0.02 99 1008.7
20260509043425 54 170 6.0 8.0 0.00 0.00 0.02 99 1008.7
20260509042907 54 162 6.0 8.0 0.00 0.00 0.02 99 1008.7
20260509042346 54 173 7.0 8.0 0.00 0.00 0.02 99 1008.6
20260509041824 54 179 7.0 8.0 0.00 0.00 0.02 99 1008.7
20260509041307 53 160 8.0 10.0 0.00 0.00 0.02 99 1008.7
20260509040750 54 191 8.0 10.0 0.00 0.00 0.02 99 1008.5
20260509040225 53 170 6.0 8.0 0.00 0.00 0.02 99 1008.5
20260509035706 53 190 7.0 10.0 0.00 0.00 0.02 99 1008.7
20260509035147 53 138 9.0 13.0 0.00 0.00 0.02 99 1008.6
20260509034626 53 171 6.0 8.0 0.00 0.00 0.02 99 1008.7
20260509034107 54 180 7.0 10.0 0.00 0.00 0.02 99 1008.5